M I D A S
Marine Information and Data Acquisition System
Tripno 371 of the Zeeleeuw from 2002-12-17 07:58:17 to 2002-12-17 15:40:07
Back to CruiseResearch ActivitiesStationsMapUnderway DataData graphs

EquipmentUnitsComments
TimeDGPSUTC
LatitudeDGPSDM.mWGS84
LongitudeDGPSDM.mWGS84
SpeedMeteo Stationm/sRelative wind speed
DirectionMeteo StationdegRelative wind direction
TemperatureMeteo Stationdeg CelciusAir temperature
PressureMeteo StationPaAtmospheric pressure
HumidityMeteo Station%Relative humidity
Missing or incorrect values are displayed as -999
Metereological data collected by the RV Zeeleeuw from 2002-12-17 07:58:17 to 2002-12-17 15:40:07
Time Latitude Longitude Speed Direction Temperature Pressure Humidity
2002-12-17 07:59 51°13.591 2°56.107 0.6 332 5.1 102160 92
2002-12-17 08:00 51°13.634 2°55.975 2.6 27 5.1 102170 92
2002-12-17 08:01 51°13.672 2°55.809 1.1 13 5.1 102160 92
2002-12-17 08:02 51°13.678 2°55.743 0.9 216 5 102170 92
2002-12-17 08:03 51°13.706 2°55.741 2.7 162 5 102170 92
2002-12-17 08:04 51°13.786 2°55.676 3.5 213 5 102170 92
2002-12-17 08:05 51°13.911 2°55.58 4.9 209 5 102160 92
2002-12-17 08:06 51°14.046 2°55.48 4.5 219 5 102160 92
2002-12-17 08:07 51°14.21 2°55.326 5.6 214 5 102160 92
2002-12-17 08:08 51°14.351 2°55.082 6.2 134 5 102170 92
2002-12-17 08:09 51°14.52 2°54.862 6.3 208 5 102160 92
2002-12-17 08:10 51°14.71 2°54.664 6.8 205 4.9 102170 92
2002-12-17 08:11 51°14.907 2°54.461 6.3 203 4.9 102170 92
2002-12-17 08:12 51°15.093 2°54.267 6.7 209 4.9 102170 92
2002-12-17 08:13 51°15.293 2°54.071 7.4 215 4.9 102190 92
2002-12-17 08:14 51°15.486 2°53.874 6.3 216 4.9 102180 92
2002-12-17 08:15 51°15.678 2°53.675 6.1 212 4.9 102180 92
2002-12-17 08:16 51°15.88 2°53.5 6.2 208 4.9 102170 92
2002-12-17 08:17 51°16.082 2°53.325 6.5 211 4.9 102180 92
2002-12-17 08:18 51°16.278 2°53.166 6.3 207 4.9 102180 92
2002-12-17 08:19 51°16.476 2°52.999 5.8 205 4.9 102180 91
2002-12-17 08:20 51°16.678 2°52.828 6.3 209 5 102180 91
2002-12-17 08:21 51°16.874 2°52.663 6.6 207 5 102190 91
2002-12-17 08:22 51°17.067 2°52.502 6.7 203 5 102190 91
2002-12-17 08:23 51°17.264 2°52.327 6.8 201 4.9 102190 91
2002-12-17 08:24 51°17.449 2°52.13 6 197 4.9 102190 91
2002-12-17 08:25 51°17.604 2°51.872 5.1 206 4.9 102190 91
2002-12-17 08:26 51°17.739 2°51.589 4.9 198 4.9 102190 91
2002-12-17 08:27 51°17.877 2°51.312 4.9 203 4.9 102190 91
2002-12-17 08:28 51°18.019 2°51.029 4.2 201 4.9 102200 91
2002-12-17 08:29 51°18.162 2°50.741 4.5 193 4.9 102200 91
2002-12-17 08:30 51°18.305 2°50.463 3.7 191 4.9 102190 91
2002-12-17 08:31 51°18.446 2°50.173 4.4 193 4.9 102200 91
2002-12-17 08:32 51°18.57 2°49.865 3.9 206 4.9 102200 91
2002-12-17 08:33 51°18.694 2°49.556 3.6 206 4.9 102210 91
2002-12-17 08:34 51°18.815 2°49.259 4.9 207 4.9 102210 91
2002-12-17 08:35 51°18.94 2°48.955 4.8 205 4.9 102200 91
2002-12-17 08:36 51°19.067 2°48.647 4.7 205 4.9 102200 91
2002-12-17 08:37 51°19.193 2°48.331 4.7 199 4.9 102210 91
2002-12-17 08:38 51°19.319 2°48.023 4.5 205 5 102210 91
2002-12-17 08:39 51°19.445 2°47.706 5.2 215 5 102210 91
2002-12-17 08:40 51°19.573 2°47.384 4.1 197 5 102220 91
2002-12-17 08:41 51°19.701 2°47.063 5.6 210 5 102210 91
2002-12-17 08:42 51°19.83 2°46.743 5.2 208 5 102230 91
2002-12-17 08:43 51°19.948 2°46.423 5 205 5 102200 91
2002-12-17 08:44 51°20.058 2°46.086 4.7 210 5 102230 91
2002-12-17 08:45 51°20.16 2°45.759 3.8 214 5 102230 91
2002-12-17 08:46 51°20.238 2°45.404 3.4 214 5 102230 91
2002-12-17 08:47 51°20.312 2°45.057 3.4 214 5 102220 91
2002-12-17 08:48 51°20.423 2°44.769 2.4 188 5 102230 91
2002-12-17 08:49 51°20.484 2°44.597 2.2 94 5 102220 91
2002-12-17 08:50 51°20.516 2°44.484 2.6 85 5 102230 91
2002-12-17 08:51 51°20.537 2°44.376 1.3 48 5 102230 91
2002-12-17 08:52 51°20.548 2°44.259 1.5 29 5 102230 91
2002-12-17 08:53 51°20.591 2°44.09 3.4 192 5.1 102230 91
2002-12-17 08:54 51°20.797 2°44.003 6.8 200 5.1 102200 91
2002-12-17 08:55 51°21.006 2°43.883 6.5 194 5.2 102230 91
2002-12-17 08:56 51°21.212 2°43.757 5.1 190 5.2 102230 91
2002-12-17 08:57 51°21.421 2°43.627 5.3 183 5.2 102230 90
2002-12-17 08:58 51°21.628 2°43.498 6.5 195 5.2 102230 90
2002-12-17 08:59 51°21.834 2°43.37 6.3 196 5.3 102220 90
2002-12-17 09:00 51°22.035 2°43.253 6.9 194 5.3 102230 90
2002-12-17 09:01 51°22.244 2°43.131 6.5 194 5.3 102230 90
2002-12-17 09:02 51°22.448 2°43.01 4.8 187 5.3 102220 90
2002-12-17 09:03 51°22.656 2°42.891 5.7 190 5.3 102230 90
2002-12-17 09:04 51°22.866 2°42.772 6.1 189 5.3 102230 90
2002-12-17 09:05 51°23.084 2°42.652 6.4 187 5.4 102220 90
2002-12-17 09:06 51°23.297 2°42.535 7.8 188 5.4 102230 90
2002-12-17 09:07 51°23.514 2°42.419 8.3 182 5.5 102230 90
2002-12-17 09:08 51°23.723 2°42.305 7.8 183 5.5 102220 89
2002-12-17 09:09 51°23.939 2°42.186 7.5 178 5.6 102220 89
2002-12-17 09:10 51°24.149 2°42.067 8.8 173 5.6 102220 89
2002-12-17 09:11 51°24.36 2°41.948 7.3 182 5.6 102230 89
2002-12-17 09:12 51°24.572 2°41.83 7.6 177 5.5 102230 89
2002-12-17 09:13 51°24.786 2°41.713 8.8 177 5.5 102230 89
2002-12-17 09:14 51°24.999 2°41.592 9.1 179 5.5 102220 89
2002-12-17 09:15 51°25.212 2°41.477 8.7 179 5.6 102220 88
2002-12-17 09:16 51°25.431 2°41.358 8.3 175 5.5 102230 88
2002-12-17 09:17 51°25.639 2°41.237 7.6 178 5.5 102220 88
2002-12-17 09:18 51°25.851 2°41.115 8.5 178 5.5 102250 88
2002-12-17 09:19 51°26.066 2°40.996 8.6 176 5.5 102230 88
2002-12-17 09:20 51°26.278 2°40.879 8.2 181 5.5 102240 87
2002-12-17 09:21 51°26.5 2°40.893 11.5 192 5.5 102230 88
2002-12-17 09:22 51°26.681 2°41.083 14.2 216 5.5 102230 87
2002-12-17 09:23 51°26.777 2°41.426 13.7 216 5.5 102220 88
2002-12-17 09:24 51°26.846 2°41.777 13.8 224 5.5 102240 88
2002-12-17 09:25 51°26.92 2°42.134 15 222 5.5 102240 88
2002-12-17 09:26 51°26.991 2°42.5 16 222 5.4 102240 88
2002-12-17 09:27 51°27.058 2°42.858 13.5 224 5.4 102260 88
2002-12-17 09:28 51°27.124 2°43.217 14.9 224 5.4 102260 88
2002-12-17 09:29 51°27.191 2°43.574 14.6 220 5.3 102250 88
2002-12-17 09:30 51°27.258 2°43.938 14.8 224 5.3 102250 88
2002-12-17 09:31 51°27.297 2°44.316 14.7 228 5.2 102250 87
2002-12-17 09:32 51°27.264 2°44.683 15.5 235 5.1 102270 88
2002-12-17 09:33 51°27.114 2°44.964 13.6 257 5.1 102250 88
2002-12-17 09:34 51°26.91 2°45.131 14.1 255 5.1 102250 88
2002-12-17 09:35 51°26.717 2°45.317 13 252 5.1 102240 89
2002-12-17 09:36 51°26.515 2°45.506 15.2 252 5 102260 89
2002-12-17 09:37 51°26.325 2°45.71 14.8 257 5 102250 89
2002-12-17 09:38 51°26.144 2°45.924 13.6 252 4.9 102270 89
2002-12-17 09:39 51°25.954 2°46.145 14.5 246 4.9 102260 89
2002-12-17 09:40 51°25.772 2°46.357 14 254 4.9 102260 89
2002-12-17 09:41 51°25.59 2°46.589 13.8 255 4.9 102270 89
2002-12-17 09:42 51°25.411 2°46.833 15.3 245 4.8 102270 89
2002-12-17 09:43 51°25.34 2°47.177 14 222 4.8 102280 89
2002-12-17 09:44 51°25.415 2°47.525 13.4 210 4.7 102280 89
2002-12-17 09:45 51°25.545 2°47.842 13.9 213 4.6 102270 89
2002-12-17 09:46 51°25.68 2°48.169 13.1 210 4.6 102280 89
2002-12-17 09:47 51°25.805 2°48.497 13.2 219 4.5 102270 89
2002-12-17 09:48 51°25.921 2°48.827 11.7 215 4.5 102300 89
2002-12-17 09:49 51°26.038 2°49.164 13.5 220 4.5 102280 89
2002-12-17 09:50 51°26.156 2°49.502 14.3 216 4.5 102280 89
2002-12-17 09:51 51°26.268 2°49.854 14.2 216 4.5 102300 89
2002-12-17 09:52 51°26.458 2°50.016 7.7 155 4.5 102290 89
2002-12-17 09:53 51°26.628 2°49.816 5.3 168 4.4 102300 89
2002-12-17 09:54 51°26.808 2°49.593 5.3 164 4.3 102310 89
2002-12-17 09:55 51°26.996 2°49.374 4.8 161 4.4 102300 90
2002-12-17 09:56 51°27.179 2°49.167 5.3 164 4.4 102300 90
2002-12-17 09:57 51°27.37 2°48.952 4.4 160 4.3 102310 90
2002-12-17 09:58 51°27.558 2°48.739 6.7 167 4.3 102310 90
2002-12-17 09:59 51°27.746 2°48.531 5.9 174 4.3 102330 89
2002-12-17 10:00 51°27.936 2°48.314 6.9 156 4.4 102320 90
2002-12-17 10:01 51°28.123 2°48.107 5.9 168 4.3 102320 89
2002-12-17 10:02 51°28.314 2°47.894 6.3 155 4.4 102320 90
2002-12-17 10:03 51°28.495 2°47.685 7.7 157 4.5 102330 90
2002-12-17 10:04 51°28.682 2°47.474 6 159 4.5 102330 90
2002-12-17 10:05 51°28.865 2°47.262 6.8 166 4.5 102320 90
2002-12-17 10:06 51°29.073 2°47.023 6.2 145 4.5 102310 90
2002-12-17 10:07 51°29.254 2°46.809 5.7 153 4.5 102320 90
2002-12-17 10:08 51°29.438 2°46.598 5 152 4.5 102330 90
2002-12-17 10:09 51°29.622 2°46.383 4.8 155 4.5 102330 90
2002-12-17 10:10 51°29.805 2°46.17 4.9 147 4.5 102320 91
2002-12-17 10:11 51°29.986 2°45.958 4.4 147 4.5 102320 90
2002-12-17 10:12 51°30.197 2°45.83 8.7 168 4.6 102340 91
2002-12-17 10:13 51°30.42 2°45.931 11.1 194 4.6 102310 91
2002-12-17 10:14 51°30.565 2°46.236 13.9 210 4.6 102300 90
2002-12-17 10:15 51°30.684 2°46.578 13.8 211 4.5 102300 90
2002-12-17 10:16 51°30.803 2°46.92 14.3 214 4.6 102300 90
2002-12-17 10:17 51°30.92 2°47.266 13.9 221 4.6 102320 90
2002-12-17 10:18 51°31.04 2°47.634 14 218 4.6 102310 90
2002-12-17 10:19 51°31.152 2°47.99 14 215 4.6 102310 90
2002-12-17 10:20 51°31.273 2°48.321 12.8 220 4.6 102320 90
2002-12-17 10:21 51°31.397 2°48.657 13.9 221 4.6 102320 90
2002-12-17 10:22 51°31.522 2°48.999 11.9 210 4.5 102330 90
2002-12-17 10:23 51°31.639 2°49.34 13.6 220 4.5 102310 90
2002-12-17 10:24 51°31.759 2°49.68 12.9 213 4.5 102330 90
2002-12-17 10:25 51°31.88 2°50.017 13 210 4.4 102330 90
2002-12-17 10:26 51°31.999 2°50.362 14.4 219 4.4 102320 90
2002-12-17 10:27 51°31.99 2°50.733 14.3 254 4.4 102330 90
2002-12-17 10:28 51°31.834 2°50.991 12.5 261 4.4 102330 91
2002-12-17 10:29 51°31.638 2°51.163 12.9 264 4.4 102330 91
2002-12-17 10:30 51°31.442 2°51.344 12.7 258 4.3 102330 90
2002-12-17 10:31 51°31.24 2°51.524 11.3 248 4.3 102340 91
2002-12-17 10:32 51°31.045 2°51.71 12.1 259 4.3 102330 91
2002-12-17 10:33 51°30.846 2°51.889 11.9 253 4.3 102340 91
2002-12-17 10:34 51°30.648 2°52.058 11.9 261 4.3 102330 91
2002-12-17 10:35 51°30.448 2°52.241 12.1 259 4.3 102340 91
2002-12-17 10:36 51°30.249 2°52.411 11 256 4.3 102340 91
2002-12-17 10:37 51°30.044 2°52.585 12.3 260 4.3 102340 91
2002-12-17 10:38 51°29.876 2°52.825 14.6 239 4.2 102350 91
2002-12-17 10:39 51°29.94 2°53.176 15.3 219 4.2 102360 91
2002-12-17 10:40 51°30.072 2°53.514 14.6 213 4.3 102350 91
2002-12-17 10:41 51°30.198 2°53.859 14.9 218 4.3 102330 91
2002-12-17 10:42 51°30.321 2°54.203 16.7 219 4.3 102350 91
2002-12-17 10:43 51°30.437 2°54.545 16.5 225 4.3 102340 91
2002-12-17 10:44 51°30.556 2°54.893 13.8 217 4.4 102330 91
2002-12-17 10:45 51°30.676 2°55.244 16 225 4.5 102330 91
2002-12-17 10:46 51°30.792 2°55.585 14.4 222 4.6 102340 91
2002-12-17 10:47 51°30.91 2°55.932 15.8 221 4.6 102330 91
2002-12-17 10:48 51°31.034 2°56.287 16.9 230 4.6 102350 90
2002-12-17 10:49 51°31.154 2°56.637 17.1 233 4.7 102350 89
2002-12-17 10:50 51°31.273 2°56.981 17.2 225 4.7 102350 89
2002-12-17 10:51 51°31.393 2°57.33 16.5 230 4.7 102330 89
2002-12-17 10:52 51°31.576 2°57.556 11.8 194 4.7 102340 88
2002-12-17 10:53 51°31.776 2°57.425 9.2 163 4.7 102340 89
2002-12-17 10:54 51°31.951 2°57.192 9.5 172 4.6 102350 87
2002-12-17 10:55 51°32.133 2°56.97 9.6 179 4.7 102340 87
2002-12-17 10:56 51°32.314 2°56.764 10 173 4.6 102360 87
2002-12-17 10:57 51°32.502 2°56.556 10.7 170 4.7 102350 87
2002-12-17 10:58 51°32.695 2°56.341 11.4 175 4.7 102340 86
2002-12-17 10:59 51°32.888 2°56.134 11.8 170 4.7 102350 86
2002-12-17 11:00 51°33.078 2°55.926 10.2 167 4.7 102360 86
2002-12-17 11:01 51°33.262 2°55.718 10.3 163 4.8 102340 86
2002-12-17 11:02 51°33.4 2°55.589 7.3 149 4.7 102360 85
2002-12-17 11:03 51°33.524 2°55.545 8.6 186 4.8 102360 86
2002-12-17 11:04 51°33.642 2°55.711 13.9 229 4.8 102370 85
2002-12-17 11:05 51°33.746 2°55.964 15.7 222 4.9 102360 85
2002-12-17 11:06 51°33.85 2°56.205 14.6 226 4.9 102350 84
2002-12-17 11:07 51°33.958 2°56.457 15.9 229 4.9 102350 84
2002-12-17 11:08 51°34.058 2°56.709 15.6 231 5 102360 84
2002-12-17 11:09 51°34.159 2°56.965 15.4 233 5 102370 84
2002-12-17 11:10 51°34.261 2°57.225 13.9 231 5 102360 83
2002-12-17 11:11 51°34.357 2°57.479 15.2 227 5 102370 83
2002-12-17 11:12 51°34.452 2°57.738 16 232 5 102350 84
2002-12-17 11:13 51°34.548 2°57.997 14.5 232 5 102370 84
2002-12-17 11:14 51°34.639 2°58.262 15.9 228 5 102370 84
2002-12-17 11:15 51°34.731 2°58.534 15.3 225 4.9 102370 85
2002-12-17 11:16 51°34.823 2°58.798 16.6 227 5 102370 85
2002-12-17 11:17 51°34.916 2°59.065 14.4 234 4.9 102380 85
2002-12-17 11:18 51°35.009 2°59.339 14.9 134 4.9 102390 85
2002-12-17 11:19 51°35.099 2°59.602 14.9 232 4.8 102380 86
2002-12-17 11:20 51°35.191 2°59.863 15.3 227 4.8 102380 86
2002-12-17 11:21 51°35.23 3°0.137 13.3 264 4.7 102370 86
2002-12-17 11:22 51°35.164 3°0.342 14.6 275 4.7 102350 86
2002-12-17 11:23 51°35.013 3°0.525 12.5 295 4.7 102370 86
2002-12-17 11:24 51°34.924 3°0.649 12.3 298 4.7 102370 85
2002-12-17 11:25 51°34.782 3°0.758 11.1 294 4.8 102370 86
2002-12-17 11:26 51°34.644 3°0.904 11.8 302 4.8 102360 85
2002-12-17 11:27 51°34.494 3°1.029 12.5 292 4.8 102370 85
2002-12-17 11:28 51°34.344 3°1.143 10.5 300 4.8 102370 85
2002-12-17 11:29 51°34.188 3°1.248 10.8 294 4.8 102370 85
2002-12-17 11:30 51°34.036 3°1.352 9.8 283 4.9 102380 86
2002-12-17 11:31 51°33.885 3°1.454 9.5 289 4.9 102370 86
2002-12-17 11:32 51°33.735 3°1.554 11.3 287 4.8 102370 86
2002-12-17 11:33 51°33.583 3°1.661 10.5 283 4.8 102370 86
2002-12-17 11:34 51°33.431 3°1.77 9.1 294 4.8 102370 86
2002-12-17 11:35 51°33.278 3°1.866 10.8 285 4.8 102380 86
2002-12-17 11:36 51°33.125 3°1.957 11.7 286 4.7 102370 86
2002-12-17 11:37 51°32.97 3°2.046 10 286 4.7 102370 86
2002-12-17 11:38 51°32.819 3°2.132 11.5 291 4.7 102370 86
2002-12-17 11:39 51°32.666 3°2.221 12.2 299 4.6 102380 86
2002-12-17 11:40 51°32.513 3°2.317 10.8 295 4.6 102370 86
2002-12-17 11:41 51°32.358 3°2.408 10.4 294 4.5 102370 86
2002-12-17 11:42 51°32.206 3°2.503 11.1 294 4.5 102370 86
2002-12-17 11:43 51°32.055 3°2.589 8.8 293 4.5 102380 86
2002-12-17 11:44 51°31.902 3°2.683 10.9 296 4.5 102370 86
2002-12-17 11:45 51°31.751 3°2.779 10.5 292 4.5 102370 86
2002-12-17 11:46 51°31.599 3°2.866 10.4 298 4.5 102370 86
2002-12-17 11:47 51°31.452 3°2.96 11 295 4.5 102380 86
2002-12-17 11:48 51°31.303 3°3.06 9.9 295 4.6 102370 86
2002-12-17 11:49 51°31.15 3°3.158 10.6 293 4.5 102370 85
2002-12-17 11:50 51°31.004 3°3.256 9.4 289 4.5 102380 85
2002-12-17 11:51 51°30.854 3°3.353 8.7 292 4.5 102380 84
2002-12-17 11:52 51°30.7 3°3.456 10 294 4.5 102370 84
2002-12-17 11:53 51°30.549 3°3.549 10.6 293 4.5 102370 84
2002-12-17 11:54 51°30.396 3°3.649 10.5 297 4.5 102360 84
2002-12-17 11:55 51°30.239 3°3.749 10.9 295 4.5 102370 83
2002-12-17 11:56 51°30.093 3°3.843 10.6 295 4.5 102360 83
2002-12-17 11:57 51°29.972 3°3.935 10.3 294 4.5 102360 83
2002-12-17 11:58 51°29.775 3°4.053 12 282 4.5 102350 82
2002-12-17 11:59 51°29.582 3°4.211 12.6 275 4.5 102340 82
2002-12-17 12:00 51°29.39 3°4.382 12.8 273 4.5 102340 81
2002-12-17 12:01 51°29.191 3°4.558 11.1 285 4.5 102350 81
2002-12-17 12:02 51°28.994 3°4.734 12.4 275 4.5 102350 81
2002-12-17 12:03 51°28.797 3°4.909 11.6 281 4.4 102340 80
2002-12-17 12:04 51°28.6 3°5.068 13.3 280 4.5 102340 81
2002-12-17 12:05 51°28.402 3°5.225 12.4 277 4.4 102330 81
2002-12-17 12:06 51°28.194 3°5.332 11.6 290 4.4 102340 81
2002-12-17 12:07 51°27.973 3°5.365 9.9 286 4.3 102350 81
2002-12-17 12:08 51°27.759 3°5.389 8.9 292 4.3 102350 81
2002-12-17 12:09 51°27.536 3°5.408 11.5 286 4.3 102350 82
2002-12-17 12:10 51°27.319 3°5.441 10.5 286 4.3 102350 82
2002-12-17 12:11 51°27.133 3°5.61 14.4 270 4.3 102340 82
2002-12-17 12:12 51°27.01 3°5.906 15.7 261 4.3 102330 82
2002-12-17 12:13 51°26.915 3°6.238 17.2 254 4.3 102320 82
2002-12-17 12:14 51°26.835 3°6.585 13.6 254 4.3 102320 82
2002-12-17 12:15 51°26.751 3°6.926 15.3 259 4.3 102330 82
2002-12-17 12:16 51°26.652 3°7.249 16.4 249 4.3 102320 82
2002-12-17 12:17 51°26.658 3°7.612 14.2 234 4.4 102330 82
2002-12-17 12:18 51°26.756 3°7.857 10.6 216 4.4 102330 82
2002-12-17 12:19 51°26.819 3°7.919 8 231 4.4 102360 83
2002-12-17 12:20 51°26.837 3°7.938 8.6 249 4.4 102360 81
2002-12-17 12:21 51°26.849 3°7.948 9 269 4.4 102350 82
2002-12-17 12:22 51°26.859 3°7.954 8.3 287 4.4 102340 81
2002-12-17 12:23 51°26.862 3°7.969 8.2 296 4.3 102340 81
2002-12-17 12:24 51°26.835 3°8.017 5.6 289 4.3 102340 80
2002-12-17 12:25 51°26.795 3°8.024 6.3 9 4.3 102350 81
2002-12-17 12:26 51°26.762 3°7.985 4.5 3 4.3 102350 80
2002-12-17 12:27 51°26.74 3°7.927 5.2 133 4.3 102350 81
2002-12-17 12:28 51°26.731 3°7.859 5.9 67 4.4 102360 81
2002-12-17 12:29 51°26.735 3°7.79 5.6 80 4.5 102360 80
2002-12-17 12:30 51°26.752 3°7.718 7.4 102 4.4 102370 81
2002-12-17 12:31 51°26.778 3°7.656 6.7 114 4.4 102360 80
2002-12-17 12:32 51°26.808 3°7.611 6.7 123 4.3 102360 81
2002-12-17 12:33 51°26.841 3°7.571 6 123 4.4 102360 81
2002-12-17 12:34 51°26.879 3°7.533 6.9 130 4.4 102360 82
2002-12-17 12:35 51°26.919 3°7.496 7.7 132 4.4 102360 82
2002-12-17 12:36 51°26.962 3°7.457 7.7 144 4.4 102360 82
2002-12-17 12:37 51°26.999 3°7.428 6.9 142 4.4 102350 81
2002-12-17 12:38 51°27.034 3°7.403 7.3 133 4.4 102360 81
2002-12-17 12:39 51°27.075 3°7.381 6.6 144 4.4 102350 81
2002-12-17 12:40 51°27.121 3°7.365 7.7 153 4.3 102350 81
2002-12-17 12:41 51°27.167 3°7.352 7.9 150 4.3 102360 81
2002-12-17 12:42 51°27.21 3°7.343 8.8 155 4.4 102360 81
2002-12-17 12:43 51°27.253 3°7.336 8.2 160 4.3 102340 80
2002-12-17 12:44 51°27.297 3°7.333 8.9 170 4.3 102340 80
2002-12-17 12:45 51°27.335 3°7.335 7.8 177 4.4 102350 81
2002-12-17 12:46 51°27.368 3°7.345 8.1 205 4.4 102340 81
2002-12-17 12:47 51°27.4 3°7.378 8.7 236 4.4 102340 81
2002-12-17 12:48 51°27.412 3°7.43 10.6 285 4.4 102340 81
2002-12-17 12:49 51°27.395 3°7.477 9.3 297 4.4 102340 81
2002-12-17 12:50 51°27.371 3°7.523 7.7 302 4.4 102350 81
2002-12-17 12:51 51°27.343 3°7.561 5.3 291 4.4 102350 81
2002-12-17 12:52 51°27.309 3°7.589 4.4 300 4.4 102350 81
2002-12-17 12:53 51°27.272 3°7.602 3.3 350 4.4 102360 81
2002-12-17 12:54 51°27.236 3°7.598 5.7 349 4.4 102360 81
2002-12-17 12:55 51°27.202 3°7.58 5.4 357 4.4 102350 81
2002-12-17 12:56 51°27.17 3°7.549 6.4 12 4.4 102360 80
2002-12-17 12:57 51°27.143 3°7.507 5.6 24 4.4 102360 81
2002-12-17 12:58 51°27.124 3°7.451 4.5 39 4.4 102360 81
2002-12-17 12:59 51°27.115 3°7.383 6.3 67 4.5 102360 81
2002-12-17 13:00 51°27.121 3°7.309 6.9 92 4.6 102360 81
2002-12-17 13:01 51°27.142 3°7.245 6.6 114 4.5 102350 80
2002-12-17 13:02 51°27.174 3°7.195 6.7 139 4.5 102350 81
2002-12-17 13:03 51°27.213 3°7.154 6.7 150 4.5 102350 81
2002-12-17 13:04 51°27.252 3°7.124 7.1 151 4.5 102340 81
2002-12-17 13:05 51°27.295 3°7.101 8.2 163 4.5 102350 82
2002-12-17 13:06 51°27.341 3°7.085 7.7 169 4.4 102350 81
2002-12-17 13:07 51°27.38 3°7.077 8.5 174 4.4 102350 81
2002-12-17 13:08 51°27.408 3°7.069 7.5 175 4.4 102360 81
2002-12-17 13:09 51°27.431 3°7.061 8.2 160 4.4 102340 82
2002-12-17 13:10 51°27.452 3°7.048 7.5 149 4.4 102340 80
2002-12-17 13:11 51°27.485 3°6.891 2.7 101 4.4 102360 81
2002-12-17 13:12 51°27.383 3°6.643 2.3 308 4.4 102370 81
2002-12-17 13:13 51°27.227 3°6.397 1.4 315 4.5 102360 81
2002-12-17 13:14 51°27.049 3°6.193 3.8 298 4.4 102360 80
2002-12-17 13:15 51°26.856 3°6.018 4.9 298 4.5 102350 81
2002-12-17 13:16 51°26.667 3°5.851 3.8 315 4.5 102360 81
2002-12-17 13:17 51°26.476 3°5.691 4.8 302 4.5 102360 81
2002-12-17 13:18 51°26.272 3°5.586 4.5 298 4.5 102360 81
2002-12-17 13:19 51°26.064 3°5.48 4.9 301 4.5 102360 81
2002-12-17 13:20 51°25.861 3°5.405 5.8 301 4.5 102350 81
2002-12-17 13:21 51°25.638 3°5.392 7.9 292 4.4 102350 81
2002-12-17 13:22 51°25.419 3°5.386 7.9 294 4.4 102350 80
2002-12-17 13:23 51°25.196 3°5.371 7.2 298 4.4 102350 80
2002-12-17 13:24 51°24.978 3°5.357 7.9 291 4.4 102350 81
2002-12-17 13:25 51°24.753 3°5.359 8.4 289 4.4 102340 81
2002-12-17 13:26 51°24.53 3°5.361 8.3 288 4.3 102340 81
2002-12-17 13:27 51°24.303 3°5.357 7.4 294 4.3 102340 81
2002-12-17 13:28 51°24.086 3°5.384 11.1 284 4.3 102340 81
2002-12-17 13:29 51°23.891 3°5.558 13.2 263 4.3 102330 81
2002-12-17 13:30 51°23.874 3°5.907 15.8 240 4.2 102330 80
2002-12-17 13:31 51°23.896 3°6.277 14.3 245 4.2 102320 80
2002-12-17 13:32 51°23.904 3°6.65 15.7 248 4.2 102310 80
2002-12-17 13:33 51°23.911 3°7.016 15.7 247 4.2 102320 80
2002-12-17 13:34 51°23.914 3°7.388 14 250 4.2 102320 81
2002-12-17 13:35 51°23.916 3°7.754 14.8 252 4.2 102320 81
2002-12-17 13:36 51°23.917 3°8.113 14.2 245 4.2 102320 81
2002-12-17 13:37 51°23.934 3°8.479 13.5 241 4.2 102330 81
2002-12-17 13:38 51°23.96 3°8.849 14.8 247 4.2 102320 81
2002-12-17 13:39 51°23.985 3°9.209 15.7 247 4.2 102320 81
2002-12-17 13:40 51°24.009 3°9.58 14.7 243 4.2 102320 81
2002-12-17 13:41 51°24.031 3°9.939 13.6 245 4.2 102330 81
2002-12-17 13:42 51°24.055 3°10.311 14.4 245 4.2 102330 82
2002-12-17 13:43 51°24.08 3°10.674 16.2 248 4.2 102320 82
2002-12-17 13:44 51°24.111 3°11.031 15.7 247 4.2 102320 81
2002-12-17 13:45 51°24.146 3°11.401 15.3 245 4.2 102330 81
2002-12-17 13:46 51°24.189 3°11.763 14.4 245 4.1 102330 81
2002-12-17 13:47 51°24.229 3°12.124 14.8 245 4.1 102330 81
2002-12-17 13:48 51°24.266 3°12.48 14.8 250 4.1 102330 81
2002-12-17 13:49 51°24.304 3°12.842 13.9 241 4.1 102330 82
2002-12-17 13:50 51°24.344 3°13.209 15.7 249 4.1 102340 81
2002-12-17 13:51 51°24.384 3°13.561 15.9 250 4.1 102330 81
2002-12-17 13:52 51°24.427 3°13.923 16.4 248 4.1 102330 81
2002-12-17 13:53 51°24.465 3°14.274 15.3 248 4.1 102320 81
2002-12-17 13:54 51°24.492 3°14.631 15.1 249 4.1 102320 81
2002-12-17 13:55 51°24.514 3°14.991 15.6 252 4.1 102320 82
2002-12-17 13:56 51°24.528 3°15.339 17 249 4.1 102330 82
2002-12-17 13:57 51°24.53 3°15.688 14.4 257 4.1 102320 81
2002-12-17 13:58 51°24.5 3°16.033 13.8 256 4 102320 82
2002-12-17 13:59 51°24.464 3°16.378 13.6 260 4 102320 82
2002-12-17 14:00 51°24.432 3°16.731 13.4 256 4 102320 82
2002-12-17 14:01 51°24.399 3°17.106 13.4 255 4 102330 82
2002-12-17 14:02 51°24.37 3°17.463 13.8 251 4 102330 82
2002-12-17 14:03 51°24.341 3°17.807 14.9 255 4 102330 82
2002-12-17 14:04 51°24.294 3°18.155 12.2 259 4 102330 82
2002-12-17 14:05 51°24.19 3°18.447 12.5 268 3.9 102330 82
2002-12-17 14:06 51°24.055 3°18.75 10.8 274 3.9 102330 82
2002-12-17 14:07 51°23.888 3°18.968 10.1 287 3.9 102330 82
2002-12-17 14:08 51°23.678 3°19.08 6.5 288 3.9 102340 82
2002-12-17 14:09 51°23.457 3°19.041 5.1 302 3.9 102350 82
2002-12-17 14:10 51°23.265 3°18.774 0.9 238 3.8 102360 82
2002-12-17 14:11 51°23.163 3°18.419 3 166 3.8 102370 82
2002-12-17 14:12 51°23.119 3°18.016 3 175 3.8 102360 82
2002-12-17 14:13 51°23.072 3°17.63 2.9 179 3.8 102360 82
2002-12-17 14:14 51°23.032 3°17.244 5 168 3.8 102360 82
2002-12-17 14:15 51°22.981 3°16.869 4.1 160 3.8 102370 82
2002-12-17 14:16 51°22.964 3°16.474 4.3 176 3.8 102360 82
2002-12-17 14:17 51°22.938 3°16.085 4.2 166 3.8 102370 82
2002-12-17 14:18 51°22.916 3°15.693 4.9 167 3.8 102370 82
2002-12-17 14:19 51°22.884 3°15.301 3.9 179 3.8 102370 82
2002-12-17 14:20 51°22.848 3°14.923 4.5 161 3.9 102370 83
2002-12-17 14:21 51°22.805 3°14.532 4.2 173 3.9 102370 82
2002-12-17 14:22 51°22.76 3°14.125 3.2 181 3.9 102370 82
2002-12-17 14:23 51°22.714 3°13.733 2.9 176 3.9 102370 83
2002-12-17 14:24 51°22.668 3°13.344 2.5 162 3.9 102360 83
2002-12-17 14:25 51°22.625 3°12.956 2.7 181 3.9 102370 83
2002-12-17 14:26 51°22.579 3°12.556 3.1 179 3.9 102370 83
2002-12-17 14:27 51°22.533 3°12.171 3.5 148 3.9 102370 83
2002-12-17 14:28 51°22.483 3°11.784 3.3 172 3.9 102380 82
2002-12-17 14:29 51°22.434 3°11.393 2.1 176 3.9 102380 82
2002-12-17 14:30 51°22.382 3°11.003 2.6 186 3.9 102380 82
2002-12-17 14:31 51°22.344 3°10.609 3.5 157 3.9 102380 82
2002-12-17 14:32 51°22.298 3°10.222 2.3 176 3.9 102380 82
2002-12-17 14:33 51°22.238 3°9.833 3.1 160 3.9 102390 82
2002-12-17 14:34 51°22.204 3°9.435 3.9 174 3.9 102390 82
2002-12-17 14:35 51°22.19 3°9.041 4.1 173 4 102390 82
2002-12-17 14:36 51°22.18 3°8.648 3.2 174 4 102390 82
2002-12-17 14:37 51°22.147 3°8.259 2.6 162 4 102390 82
2002-12-17 14:38 51°22.091 3°7.875 2.3 192 4 102390 82
2002-12-17 14:39 51°22.028 3°7.491 2.8 154 4 102400 82
2002-12-17 14:40 51°21.968 3°7.109 1.2 168 4 102400 82
2002-12-17 14:41 51°21.89 3°6.738 1.2 212 4 102400 82
2002-12-17 14:42 51°21.804 3°6.362 1 215 4 102400 82
2002-12-17 14:43 51°21.709 3°5.996 1.7 201 4 102400 82
2002-12-17 14:44 51°21.614 3°5.634 1.6 194 4 102400 83
2002-12-17 14:45 51°21.513 3°5.276 0.9 163 4 102400 83
2002-12-17 14:46 51°21.415 3°4.921 0.3 167 4 102400 83
2002-12-17 14:47 51°21.318 3°4.558 1.2 201 4 102400 83
2002-12-17 14:48 51°21.219 3°4.19 1.1 161 4.1 102400 83
2002-12-17 14:49 51°21.125 3°3.829 1.8 169 4.1 102410 83
2002-12-17 14:50 51°21.025 3°3.47 1.3 151 4.1 102410 82
2002-12-17 14:51 51°20.928 3°3.107 1.9 185 4.1 102420 83
2002-12-17 14:52 51°20.831 3°2.743 1 164 4.1 102410 82
2002-12-17 14:53 51°20.727 3°2.384 0.6 164 4.1 102410 82
2002-12-17 14:54 51°20.63 3°2.021 0.6 316 4.1 102410 82
2002-12-17 14:55 51°20.526 3°1.661 1 267 4.1 102410 82
2002-12-17 14:56 51°20.425 3°1.299 1.2 215 4.1 102410 82
2002-12-17 14:57 51°20.325 3°0.929 1.2 236 4.2 102410 83
2002-12-17 14:58 51°20.229 3°0.557 0.5 168 4.2 102420 82
2002-12-17 14:59 51°20.134 3°0.192 0.4 314 4.2 102420 82
2002-12-17 15:00 51°20.041 2°59.842 0.8 169 4.2 102420 82
2002-12-17 15:01 51°19.949 2°59.477 1.2 211 4.2 102420 82
2002-12-17 15:02 51°19.858 2°59.097 4.1 150 4.2 102420 82
2002-12-17 15:03 51°19.78 2°58.722 2.7 131 4.2 102420 82
2002-12-17 15:04 51°19.696 2°58.354 1.2 172 4.2 102430 82
2002-12-17 15:05 51°19.611 2°57.988 2.5 125 4.2 102430 82
2002-12-17 15:06 51°19.533 2°57.618 1.7 169 4.2 102430 81
2002-12-17 15:07 51°19.451 2°57.256 2 111 4.2 102430 82
2002-12-17 15:08 51°19.361 2°56.889 1.9 132 4.2 102430 82
2002-12-17 15:09 51°19.261 2°56.541 1.6 111 4.2 102430 81
2002-12-17 15:10 51°19.156 2°56.171 1.7 128 4.2 102430 82
2002-12-17 15:11 51°19.057 2°55.812 1.8 136 4.2 102440 81
2002-12-17 15:12 51°18.957 2°55.461 1.8 126 4.2 102440 81
2002-12-17 15:13 51°18.855 2°55.097 0.6 125 4.2 102440 81
2002-12-17 15:14 51°18.763 2°54.739 0.5 153 4.2 102440 81
2002-12-17 15:15 51°18.669 2°54.377 0.5 136 4.2 102440 81
2002-12-17 15:16 51°18.578 2°54.017 0.4 90 4.3 102440 81
2002-12-17 15:17 51°18.481 2°53.648 0.7 313 4.3 102440 81
2002-12-17 15:18 51°18.387 2°53.283 1.5 181 4.4 102440 81
2002-12-17 15:19 51°18.295 2°52.917 0.8 134 4.4 102440 82
2002-12-17 15:20 51°18.153 2°52.591 3.2 299 4.4 102450 81
2002-12-17 15:21 51°17.939 2°52.425 6.2 303 4.4 102430 81
2002-12-17 15:22 51°17.709 2°52.372 8.4 295 4.4 102430 81
2002-12-17 15:23 51°17.479 2°52.318 7.9 289 4.4 102420 81
2002-12-17 15:24 51°17.25 2°52.247 9.9 286 4.3 102420 82
2002-12-17 15:25 51°17.031 2°52.362 13 276 4.3 102410 82
2002-12-17 15:26 51°16.836 2°52.543 13.5 273 4.3 102410 81
2002-12-17 15:27 51°16.645 2°52.724 12.8 275 4.3 102410 81
2002-12-17 15:28 51°16.442 2°52.925 12 274 4.3 102410 81
2002-12-17 15:29 51°16.231 2°53.125 13.7 275 4.3 102410 81
2002-12-17 15:30 51°16.041 2°53.301 13.3 274 4.3 102410 81
2002-12-17 15:31 51°15.842 2°53.499 12.3 280 4.2 102410 81
2002-12-17 15:32 51°15.645 2°53.678 12.9 280 4.2 102410 81
2002-12-17 15:33 51°15.456 2°53.863 11.7 275 4.2 102420 81
2002-12-17 15:34 51°15.259 2°54.049 12 281 4.2 102410 81
2002-12-17 15:35 51°15.071 2°54.241 11.5 277 4.2 102410 80
2002-12-17 15:36 51°14.884 2°54.429 12.1 277 4.2 102420 81
2002-12-17 15:37 51°14.702 2°54.638 11.9 273 4.2 102420 81
2002-12-17 15:38 51°14.524 2°54.844 12.7 272 4.2 102420 81
2002-12-17 15:39 51°14.368 2°55.073 8.8 238 4.1 102410 80